Weather History for Stuttgart, AR

Change the Weather History Date:

Thursday, June 13, 2013

  Actual Average Record
Temperature  
Mean Temperature 86 °F -  
Max Temperature 96 °F 85 °F 98 °F (1998)
Min Temperature 77 °F 67 °F 62 °F (2006)
Cooling Degree Days 22    
Growing Degree Days 36 (Base 50)    
Moisture  
Dew Point 70 °F    
Average Humidity 60    
Maximum Humidity 78    
Minimum Humidity 44    
Precipitation  
Precipitation 0.00 in - - ()
Sea Level Pressure  
Sea Level Pressure 29.95 in    
Wind  
Wind Speed 12 mph (West)    
Max Wind Speed 20 mph    
Max Gust Speed 26 mph    
Visibility 10 miles    
Events      
Averages and records for this station are not official NWS values.
T = Trace of Precipitation, MM = Missing Value Source: NWS Daily Summary

Daily Weather History Graph

Daily Weather History Graph

Search for Another Location

Airport:

Trip Planner

Search our weather history database for the weather conditions in past years. The results will help you decide how hot, cold, wet, or windy it might be!

Date:

Astronomy

Jun. 13, 2013 Rise Set
Actual Time 5:52 AM CDT 8:20 PM CDT
Civil Twilight 5:23 AM CDT 8:49 PM CDT
Nautical Twilight 4:47 AM CDT 9:25 PM CDT
Astronomical Twilight 4:07 AM CDT 10:05 PM CDT
Moon 10:20 AM CDT (6/13) 11:37 PM CDT (6/13)
Length of Visible Light 15h 26m
Length of Day
14h 27m
Waxing Crescent, 22% of the Moon is Illuminated
Jun 13
Waxing Crescent
Jun 16
First Quarter
Jun 23
Full
Jun 29
Last Quarter
Jul 8
New

Hourly Weather History & Observations

Time (CDT) Temp. Heat Index Dew Point Humidity Pressure Visibility Wind Dir Wind Speed Gust Speed Precip Events Conditions
12:15 AM 78.8 °F - 71.6 °F 78% 29.98 in 10.0 mi SSW 10.4 mph - N/A   Clear
12:35 AM 78.8 °F - 71.6 °F 78% 29.97 in 10.0 mi SSW 10.4 mph - N/A   Clear
12:55 AM 78.8 °F - 71.6 °F 78% 29.97 in 10.0 mi SSW 10.4 mph - N/A   Clear
1:35 AM 78.8 °F - 69.8 °F 74% 29.97 in 10.0 mi SSW 10.4 mph - N/A   Clear
1:55 AM 78.8 °F - 69.8 °F 74% 29.97 in 10.0 mi SW 9.2 mph - N/A   Clear
2:15 AM 78.8 °F - 69.8 °F 74% 29.97 in 10.0 mi SW 9.2 mph - N/A   Clear
2:35 AM 78.8 °F - 69.8 °F 74% 29.97 in 10.0 mi SW 11.5 mph - N/A   Clear
2:56 AM 78.8 °F - 69.8 °F 74% 29.96 in 10.0 mi SW 10.4 mph - N/A   Clear
3:15 AM 78.8 °F - 69.8 °F 74% 29.97 in 10.0 mi SW 9.2 mph - N/A   Clear
3:35 AM 78.8 °F - 69.8 °F 74% 29.97 in 10.0 mi SW 8.1 mph - N/A   Clear
3:55 AM 77.0 °F - 69.8 °F 78% 29.97 in 10.0 mi SW 9.2 mph - N/A   Clear
4:15 AM 77.0 °F - 69.8 °F 78% 29.96 in 10.0 mi SW 8.1 mph - N/A   Clear
4:35 AM 77.0 °F - 69.8 °F 78% 29.96 in 10.0 mi SW 8.1 mph - N/A   Clear
4:55 AM 77.0 °F - 69.8 °F 78% 29.96 in 10.0 mi SW 9.2 mph - N/A   Clear
5:16 AM 77.0 °F - 69.8 °F 78% 29.96 in 10.0 mi SW 8.1 mph - N/A   Clear
5:35 AM 77.0 °F - 69.8 °F 78% 29.97 in 10.0 mi SW 9.2 mph - N/A   Clear
5:55 AM 77.0 °F - 69.8 °F 78% 29.97 in 10.0 mi SW 8.1 mph - N/A   Clear
6:15 AM 77.0 °F - 69.8 °F 78% 29.98 in 10.0 mi SW 10.4 mph - N/A   Clear
6:35 AM 78.8 °F - 69.8 °F 74% 29.98 in 10.0 mi SW 9.2 mph - N/A   Clear
6:55 AM 78.8 °F - 69.8 °F 74% 29.98 in 10.0 mi SW 9.2 mph - N/A   Clear
7:15 AM 78.8 °F - 69.8 °F 74% 29.98 in 10.0 mi WSW 11.5 mph - N/A   Clear
7:36 AM 78.8 °F - 69.8 °F 74% 29.99 in 10.0 mi WSW 10.4 mph - N/A   Clear
7:55 AM 80.6 °F 84.6 °F 71.6 °F 74% 29.99 in 10.0 mi WSW 9.2 mph - N/A   Scattered Clouds
8:15 AM 82.4 °F 87.2 °F 71.6 °F 70% 29.99 in 10.0 mi WSW 15.0 mph - N/A   Scattered Clouds
8:35 AM 84.2 °F 89.6 °F 71.6 °F 66% 29.99 in 10.0 mi WSW 11.5 mph 19.6 mph N/A   Partly Cloudy
8:55 AM 86.0 °F 91.8 °F 71.6 °F 62% 29.99 in 10.0 mi WSW 15.0 mph 20.7 mph N/A   Clear
9:15 AM 87.8 °F 93.8 °F 71.6 °F 58% 29.99 in 10.0 mi WSW 15.0 mph - N/A   Clear
9:35 AM 87.8 °F 93.8 °F 71.6 °F 58% 29.99 in 10.0 mi WSW 16.1 mph 20.7 mph N/A   Mostly Cloudy
9:56 AM 87.8 °F 93.8 °F 71.6 °F 58% 29.98 in 5.0 mi WSW 18.4 mph - N/A   Scattered Clouds
10:15 AM 89.6 °F 96.2 °F 71.6 °F 55% 29.98 in 10.0 mi West 17.3 mph - N/A   Clear
10:35 AM 89.6 °F 98.2 °F 73.4 °F 59% 29.98 in 10.0 mi West 16.1 mph 19.6 mph N/A   Clear
10:55 AM 91.4 °F 100.1 °F 73.4 °F 55% 29.98 in 10.0 mi West 12.7 mph 19.6 mph N/A   Clear
11:15 AM 93.2 °F 102.4 °F 73.4 °F 52% 29.98 in 10.0 mi West 15.0 mph 18.4 mph N/A   Clear
11:35 AM 93.2 °F 100.5 °F 71.6 °F 49% 29.98 in 10.0 mi West 10.4 mph 20.7 mph N/A   Clear
11:55 AM 93.2 °F 100.5 °F 71.6 °F 49% 29.97 in 10.0 mi WNW 16.1 mph 20.7 mph N/A   Clear
12:15 PM 95.0 °F 103.2 °F 71.6 °F 47% 29.97 in 10.0 mi West 13.8 mph 23.0 mph N/A   Clear
12:35 PM 95.0 °F 103.2 °F 71.6 °F 47% 29.96 in 10.0 mi WNW 18.4 mph 26.5 mph N/A   Clear
12:55 PM 96.8 °F 105.1 °F 71.6 °F 44% 29.95 in 10.0 mi West 18.4 mph - N/A   Clear
1:15 PM 96.8 °F 105.1 °F 71.6 °F 44% 29.95 in 10.0 mi West 19.6 mph 26.5 mph N/A   Clear
1:36 PM 96.8 °F 105.1 °F 71.6 °F 44% 29.95 in 10.0 mi WNW 18.4 mph 23.0 mph N/A   Clear
1:55 PM 96.8 °F 107.3 °F 73.4 °F 47% 29.94 in 10.0 mi West 18.4 mph 24.2 mph N/A   Partly Cloudy
2:15 PM 96.8 °F 107.3 °F 73.4 °F 47% 29.93 in 10.0 mi NW 15.0 mph 21.9 mph N/A   Clear
2:36 PM 96.8 °F 107.3 °F 73.4 °F 47% 29.93 in 10.0 mi WNW 16.1 mph - N/A   Scattered Clouds
2:55 PM 96.8 °F 107.3 °F 73.4 °F 47% 29.93 in 10.0 mi WNW 15.0 mph 18.4 mph N/A   Scattered Clouds
3:15 PM 96.8 °F 107.3 °F 73.4 °F 47% 29.92 in 10.0 mi NW 15.0 mph 20.7 mph N/A   Partly Cloudy
3:55 PM 96.8 °F 107.3 °F 73.4 °F 47% 29.91 in 10.0 mi NW 12.7 mph - N/A   Mostly Cloudy
4:15 PM 96.8 °F 107.3 °F 73.4 °F 47% 29.90 in 10.0 mi WNW 10.4 mph - N/A   Scattered Clouds
4:35 PM 96.8 °F 107.3 °F 73.4 °F 47% 29.90 in 10.0 mi NW 11.5 mph - N/A   Mostly Cloudy
4:55 PM 96.8 °F 107.3 °F 73.4 °F 47% 29.89 in 10.0 mi WNW 13.8 mph - N/A   Scattered Clouds
5:15 PM 96.8 °F 105.1 °F 71.6 °F 44% 29.89 in 10.0 mi NW 11.5 mph - N/A   Partly Cloudy
5:35 PM 96.8 °F 107.3 °F 73.4 °F 47% 29.88 in 10.0 mi WNW 13.8 mph - N/A   Scattered Clouds
5:55 PM 95.0 °F 103.2 °F 71.6 °F 47% 29.88 in 10.0 mi NNW 11.5 mph - N/A   Partly Cloudy
6:15 PM 93.2 °F 102.4 °F 73.4 °F 52% 29.88 in 10.0 mi NW 9.2 mph - N/A   Clear
6:35 PM 91.4 °F 100.1 °F 73.4 °F 55% 29.88 in 10.0 mi North 10.4 mph - N/A   Scattered Clouds
6:55 PM 91.4 °F 98.4 °F 71.6 °F 52% 29.89 in 10.0 mi North 13.8 mph - N/A   Mostly Cloudy
7:15 PM 89.6 °F 94.7 °F 69.8 °F 52% 29.89 in 10.0 mi NNE 13.8 mph - N/A   Scattered Clouds
7:35 PM 87.8 °F 92.6 °F 69.8 °F 55% 29.91 in 10.0 mi NNE 12.7 mph - N/A   Scattered Clouds
7:55 PM 87.8 °F 92.6 °F 69.8 °F 55% 29.91 in 10.0 mi NNE 10.4 mph - N/A   Clear
8:15 PM 86.0 °F 89.4 °F 68.0 °F 55% 29.92 in 10.0 mi NNE 10.4 mph - N/A   Partly Cloudy
8:35 PM 84.2 °F 86.6 °F 66.2 °F 55% 29.92 in 10.0 mi NNE 11.5 mph - N/A   Mostly Cloudy
8:55 PM 84.2 °F 86.6 °F 66.2 °F 55% 29.91 in 10.0 mi NNE 11.5 mph - N/A   Mostly Cloudy
9:15 PM 84.2 °F 86.6 °F 66.2 °F 55% 29.92 in 10.0 mi NNE 9.2 mph - N/A   Clear
9:35 PM 82.4 °F 84.6 °F 66.2 °F 58% 29.93 in 10.0 mi NE 9.2 mph - N/A   Scattered Clouds
9:55 PM 82.4 °F 84.6 °F 66.2 °F 58% 29.94 in 10.0 mi NE 10.4 mph - N/A   Scattered Clouds
10:16 PM 82.4 °F 84.6 °F 66.2 °F 58% 29.95 in 10.0 mi NE 9.2 mph - N/A   Partly Cloudy
10:35 PM 80.6 °F 82.7 °F 66.2 °F 61% 29.95 in 10.0 mi NE 9.2 mph - N/A   Scattered Clouds
10:55 PM 80.6 °F 82.7 °F 66.2 °F 61% 29.95 in 10.0 mi NE 11.5 mph - N/A   Partly Cloudy
11:15 PM 80.6 °F 82.3 °F 64.4 °F 58% 29.96 in 10.0 mi NE 13.8 mph - N/A   Partly Cloudy
11:35 PM 80.6 °F 82.3 °F 64.4 °F 58% 29.96 in 10.0 mi NE 16.1 mph - N/A   Partly Cloudy
11:55 PM 80.6 °F 82.3 °F 64.4 °F 58% 29.96 in 10.0 mi NE 16.1 mph 23.0 mph N/A   Partly Cloudy